TimeCST,TemperatureF,Dew PointF,Humidity,Sea Level PressureIn,VisibilityMPH,Wind Direction,Wind SpeedMPH,Gust SpeedMPH,PrecipitationIn,Events,Conditions,WindDirDegrees,DateUTC
12:53 AM,46.0,36.0,68,29.73,10.0,North,16.1,-,N/A,,Clear,350,2013-02-07 06:53:00
1:53 AM,46.9,25.0,42,29.75,10.0,North,20.7,29.9,N/A,,Clear,350,2013-02-07 07:53:00
2:53 AM,46.0,25.0,44,29.78,10.0,North,19.6,29.9,N/A,,Clear,350,2013-02-07 08:53:00
3:53 AM,46.0,23.0,40,29.81,10.0,North,23.0,35.7,N/A,,Clear,350,2013-02-07 09:53:00
4:53 AM,45.0,25.0,46,29.83,10.0,North,23.0,31.1,N/A,,Mostly Cloudy,350,2013-02-07 10:53:00
5:53 AM,45.0,27.0,49,29.88,10.0,North,23.0,31.1,N/A,,Overcast,350,2013-02-07 11:53:00
6:53 AM,43.0,27.0,53,29.94,10.0,North,23.0,31.1,N/A,,Scattered Clouds,350,2013-02-07 12:53:00
7:53 AM,42.1,25.0,51,30.01,10.0,North,23.0,-,N/A,,Overcast,350,2013-02-07 13:53:00
8:53 AM,42.1,24.1,49,30.06,10.0,North,23.0,29.9,N/A,,Overcast,350,2013-02-07 14:53:00
9:53 AM,43.0,24.1,47,30.09,10.0,North,21.9,29.9,N/A,,Clear,360,2013-02-07 15:53:00
10:53 AM,48.9,25.0,39,30.10,10.0,NNE,27.6,34.5,N/A,,Clear,20,2013-02-07 16:53:00
11:53 AM,52.0,27.0,38,30.11,10.0,North,23.0,29.9,N/A,,Clear,10,2013-02-07 17:53:00
12:53 PM,53.1,27.0,37,30.09,10.0,NNE,20.7,27.6,N/A,,Clear,20,2013-02-07 18:53:00
1:53 PM,54.0,27.0,35,30.07,10.0,North,18.4,24.2,N/A,,Clear,360,2013-02-07 19:53:00
2:53 PM,55.0,26.1,33,30.06,10.0,North,16.1,23.0,N/A,,Clear,10,2013-02-07 20:53:00
3:53 PM,55.0,26.1,33,30.06,10.0,North,12.7,24.2,N/A,,Partly Cloudy,350,2013-02-07 21:53:00
4:53 PM,54.0,26.1,34,30.08,10.0,NNE,16.1,21.9,N/A,,Partly Cloudy,20,2013-02-07 22:53:00
5:53 PM,51.1,24.1,35,30.11,10.0,North,9.2,-,N/A,,Clear,10,2013-02-07 23:53:00
6:53 PM,45.0,23.0,42,30.14,10.0,Calm,Calm,-,N/A,,Clear,0,2013-02-08 00:53:00
7:53 PM,46.0,23.0,40,30.15,10.0,Calm,Calm,-,N/A,,Clear,0,2013-02-08 01:53:00
8:53 PM,39.0,21.9,50,30.18,10.0,South,4.6,-,N/A,,Clear,190,2013-02-08 02:53:00
9:53 PM,36.0,21.9,57,30.19,10.0,SSW,5.8,-,N/A,,Clear,210,2013-02-08 03:53:00
10:53 PM,32.0,19.9,61,30.19,10.0,SW,6.9,-,N/A,,Clear,230,2013-02-08 04:53:00
11:53 PM,30.9,19.9,64,30.19,10.0,SW,5.8,-,N/A,,Clear,220,2013-02-08 05:53:00